This is the latest recevied weather packets stored in our database for station/object OE1HTB-13. If no packets are shown the sender has not sent any weather packets the latest 10 day(s).
| Time | Temp. | Humidity | Pressure | Rain* | Wind** | Luminosity | Snow |
|---|---|---|---|---|---|---|---|
| 1777819573 | 24.44° C | 33% | 1014.5 hPa | 0 mm | - | 494 W/m² | - |
| 1777818673 | 24.44° C | 33% | 1014.6 hPa | 0 mm | - | 533 W/m² | - |
| 1777817773 | 25° C | 33% | 1014.7 hPa | 0 mm | - | 571 W/m² | - |
| 1777816873 | 24.44° C | 33% | 1015 hPa | 0 mm | - | 608 W/m² | - |
| 1777815973 | 25.56° C | 33% | 1015 hPa | 0 mm | - | 642 W/m² | - |
| 1777815073 | 25° C | 33% | 1015 hPa | 0 mm | - | 673 W/m² | - |
| 1777814173 | 25.56° C | 34% | 1015.3 hPa | 0 mm | - | 701 W/m² | - |
| 1777813273 | 25° C | 33% | 1015.7 hPa | 0 mm | - | 729 W/m² | - |
| 1777812372 | 25° C | 35% | 1015.9 hPa | 0 mm | - | 749 W/m² | - |
| 1777811473 | 24.44° C | 36% | 1015.8 hPa | 0 mm | - | 770 W/m² | - |
| 1777810572 | 24.44° C | 36% | 1016.3 hPa | 0 mm | - | 793 W/m² | - |
| 1777809673 | 23.89° C | 37% | 1016.1 hPa | 0 mm | - | 807 W/m² | - |
| 1777808772 | 24.44° C | 39% | 1016.3 hPa | 0 mm | - | 823 W/m² | - |
| 1777807872 | 23.33° C | 38% | 1016.6 hPa | 0 mm | - | 826 W/m² | - |
| 1777806971 | 23.33° C | 38% | 1016.5 hPa | 0 mm | - | 833 W/m² | - |
| 1777806072 | 23.33° C | 38% | 1016.8 hPa | 0 mm | - | 838 W/m² | - |
| 1777805173 | 22.78° C | 42% | 1017 hPa | 0 mm | - | 838 W/m² | - |
| 1777804271 | 22.22° C | 43% | 1017.3 hPa | 0 mm | - | 831 W/m² | - |
| 1777803371 | 22.78° C | 41% | 1017.3 hPa | 0 mm | - | 826 W/m² | - |
| 1777802471 | 22.22° C | 39% | 1017.7 hPa | 0 mm | - | 826 W/m² | - |
| 1777801572 | 21.67° C | 43% | 1017.6 hPa | 0 mm | - | 812 W/m² | - |
| 1777800671 | 20.56° C | 41% | 1017.6 hPa | 0 mm | - | 798 W/m² | - |
| 1777799770 | 21.67° C | 45% | 1017.8 hPa | 0 mm | - | 784 W/m² | - |
| 1777798870 | 20.56° C | 44% | 1018.1 hPa | 0 mm | - | 761 W/m² | - |
| 1777797970 | 20.56° C | 44% | 1017.9 hPa | 0 mm | - | 742 W/m² | - |
* Rain latest hour (hover to see other rain measurements)
** Current wind speed in m/s (hover to see current wind gust speed)